Time,TemperatureF,DewpointF,PressureIn,WindDirection,WindDirectionDegrees,WindSpeedMPH,WindSpeedGustMPH,Humidity,HourlyPrecipIn,Conditions,Clouds,dailyrainin,SoftwareType,DateUTC
2013-04-19 00:01:00,40.1,39.0,29.38,SE,130,7.0,7.0,96,0.00,,,0.37,VWS V14.01,2013-04-19 04:01:00,
2013-04-19 00:06:00,40.2,39.2,29.38,SSE,155,7.0,8.0,96,0.00,,,0.00,VWS V14.01,2013-04-19 04:06:00,
2013-04-19 00:11:00,40.3,39.2,29.38,SE,135,7.0,8.0,96,0.00,,,0.00,VWS V14.01,2013-04-19 04:11:00,
2013-04-19 00:16:00,40.4,39.3,29.37,East,97,7.0,7.0,96,0.00,,,0.00,VWS V14.01,2013-04-19 04:16:00,
2013-04-19 00:21:00,40.4,39.3,29.37,SE,128,5.0,7.0,96,0.00,,,0.00,VWS V14.01,2013-04-19 04:21:00,
2013-04-19 00:27:00,40.4,39.6,29.37,SE,137,9.0,9.0,97,0.00,,,0.00,VWS V14.01,2013-04-19 04:27:00,
2013-04-19 00:32:00,40.4,39.3,29.36,SE,124,11.0,11.0,96,0.00,,,0.00,VWS V14.01,2013-04-19 04:32:00,
2013-04-19 00:37:00,40.5,39.5,29.34,ESE,119,4.0,8.0,96,0.00,,,0.00,VWS V14.01,2013-04-19 04:37:00,
2013-04-19 00:42:00,40.5,39.7,29.34,SE,146,5.0,5.0,97,0.00,,,0.00,VWS V14.01,2013-04-19 04:42:00,
2013-04-19 00:47:00,40.6,39.8,29.34,SE,131,8.0,9.0,97,0.00,,,0.00,VWS V14.01,2013-04-19 04:47:00,
2013-04-19 00:52:00,40.6,39.8,29.33,SE,134,4.0,10.0,97,0.00,,,0.00,VWS V14.01,2013-04-19 04:52:00,
2013-04-19 00:57:00,40.5,39.7,29.33,ESE,121,3.0,6.0,97,0.00,,,0.00,VWS V14.01,2013-04-19 04:57:00,
2013-04-19 01:02:00,40.5,39.7,29.34,SE,138,10.0,11.0,97,0.00,,,0.00,VWS V14.01,2013-04-19 05:02:00,
2013-04-19 01:07:00,40.4,39.6,29.34,ESE,111,4.0,4.0,97,0.01,,,0.01,VWS V14.01,2013-04-19 05:07:00,
2013-04-19 01:12:00,40.4,39.6,29.33,SE,144,6.0,9.0,97,0.02,,,0.02,VWS V14.01,2013-04-19 05:12:00,
2013-04-19 01:17:00,40.5,39.7,29.33,SE,138,8.0,9.0,97,0.03,,,0.03,VWS V14.01,2013-04-19 05:17:00,
2013-04-19 01:22:00,40.5,39.7,29.33,SE,130,9.0,9.0,97,0.03,,,0.03,VWS V14.01,2013-04-19 05:22:00,
2013-04-19 01:27:00,40.6,39.8,29.32,East,100,7.0,7.0,97,0.05,,,0.05,VWS V14.01,2013-04-19 05:27:00,
2013-04-19 01:32:00,40.7,39.9,29.33,SSE,155,3.0,6.0,97,0.07,,,0.07,VWS V14.01,2013-04-19 05:32:00,
2013-04-19 01:37:00,40.9,40.1,29.33,SSE,148,3.0,5.0,97,0.08,,,0.08,VWS V14.01,2013-04-19 05:37:00,
2013-04-19 01:42:00,41.0,40.2,29.33,SE,135,5.0,8.0,97,0.08,,,0.08,VWS V14.01,2013-04-19 05:42:00,
2013-04-19 01:47:00,41.0,40.2,29.32,SE,131,9.0,10.0,97,0.08,,,0.08,VWS V14.01,2013-04-19 05:47:00,
2013-04-19 01:52:00,41.0,40.2,29.32,SE,134,5.0,5.0,97,0.08,,,0.08,VWS V14.01,2013-04-19 05:52:00,
2013-04-19 01:57:00,41.0,40.0,29.31,SE,134,5.0,10.0,96,0.09,,,0.09,VWS V14.01,2013-04-19 05:57:00,
2013-04-19 02:02:00,41.1,40.0,29.31,SE,124,2.0,6.0,96,0.09,,-RA,0.09,VWS V14.01,2013-04-19 06:02:00,
2013-04-19 02:07:00,41.1,40.0,29.30,SE,128,4.0,5.0,96,0.10,,-RA,0.10,VWS V14.01,2013-04-19 06:07:00,
2013-04-19 02:12:00,41.1,40.3,29.29,ESE,116,6.0,6.0,97,0.10,,-RA,0.10,VWS V14.01,2013-04-19 06:12:00,
2013-04-19 02:30:00,41.4,40.3,29.29,ESE,121,3.0,4.0,96,0.11,,-RA,0.11,VWS V14.01,2013-04-19 06:30:00,
2013-04-19 02:35:00,41.4,40.3,29.29,SE,126,3.0,4.0,96,0.05,,-RA,0.12,VWS V14.01,2013-04-19 06:35:00,
2013-04-19 02:40:00,41.4,40.3,29.29,SE,140,2.0,3.0,96,0.06,,-RA,0.13,VWS V14.01,2013-04-19 06:40:00,
2013-04-19 02:45:00,41.6,40.8,29.29,SE,124,3.0,3.0,97,0.07,,-RA,0.14,VWS V14.01,2013-04-19 06:45:00,
2013-04-19 02:50:00,41.6,40.8,29.30,WNW,300,11.0,11.0,97,0.07,,-RA,0.14,VWS V14.01,2013-04-19 06:50:00,
2013-04-19 02:55:00,42.3,41.5,29.31,NNW,346,6.0,6.0,97,0.09,,-RA,0.16,VWS V14.01,2013-04-19 06:55:00,
2013-04-19 03:00:00,43.2,42.4,29.31,NNE,22,1.0,1.0,97,0.10,,-RA,0.17,VWS V14.01,2013-04-19 07:00:00,
2013-04-19 03:05:00,43.6,42.8,29.30,NNW,332,1.0,1.0,97,0.09,,-RA,0.18,VWS V14.01,2013-04-19 07:05:00,
2013-04-19 03:10:00,44.1,43.3,29.31,NNW,329,1.0,2.0,97,0.09,,-RA,0.18,VWS V14.01,2013-04-19 07:10:00,
2013-04-19 03:15:00,44.5,43.7,29.31,West,280,3.0,6.0,97,0.10,,-RA,0.19,VWS V14.01,2013-04-19 07:15:00,
2013-04-19 03:20:00,44.6,43.8,29.31,SW,219,2.0,2.0,97,0.11,,-RA,0.20,VWS V14.01,2013-04-19 07:20:00,
2013-04-19 03:26:00,44.7,43.9,29.30,West,281,6.0,7.0,97,0.12,,-RA,0.21,VWS V14.01,2013-04-19 07:26:00,
2013-04-19 03:31:00,44.6,43.8,29.29,WNW,283,8.0,8.0,97,0.12,,-RA,0.21,VWS V14.01,2013-04-19 07:31:00,
2013-04-19 03:36:00,44.5,43.4,29.29,NW,306,8.0,8.0,96,0.09,,-RA,0.21,VWS V14.01,2013-04-19 07:36:00,
2013-04-19 03:41:00,44.2,42.9,29.28,WSW,256,4.0,4.0,95,0.10,,-RA,0.22,VWS V14.01,2013-04-19 07:41:00,
2013-04-19 03:46:00,44.1,42.8,29.28,West,268,9.0,10.0,95,0.10,,-RA,0.22,VWS V14.01,2013-04-19 07:46:00,
2013-04-19 03:51:00,44.0,42.7,29.28,SW,220,4.0,6.0,95,0.10,,-RA,0.22,VWS V14.01,2013-04-19 07:51:00,
2013-04-19 03:56:00,43.9,42.6,29.29,West,261,4.0,4.0,95,0.10,,-RA,0.22,VWS V14.01,2013-04-19 07:56:00,
2013-04-19 04:01:00,43.8,42.5,29.28,SW,234,4.0,5.0,95,0.10,,-RA,0.22,VWS V14.01,2013-04-19 08:01:00,
2013-04-19 04:06:00,43.7,42.4,29.28,WSW,243,2.0,3.0,95,0.05,,-RA,0.23,VWS V14.01,2013-04-19 08:06:00,
2013-04-19 04:11:00,43.6,42.3,29.28,WSW,242,5.0,8.0,95,0.06,,-RA,0.24,VWS V14.01,2013-04-19 08:11:00,
2013-04-19 04:16:00,43.4,42.1,29.28,SSW,208,4.0,4.0,95,0.06,,-RA,0.24,VWS V14.01,2013-04-19 08:16:00,
2013-04-19 04:21:00,43.3,42.0,29.27,West,271,3.0,4.0,95,0.06,,-RA,0.24,VWS V14.01,2013-04-19 08:21:00,
2013-04-19 04:26:00,43.1,41.8,29.26,WSW,256,3.0,4.0,95,0.06,,-RA,0.24,VWS V14.01,2013-04-19 08:26:00,
2013-04-19 04:31:00,43.0,41.7,29.26,SW,227,4.0,5.0,95,0.06,,-RA,0.24,VWS V14.01,2013-04-19 08:31:00,
2013-04-19 04:36:00,42.9,41.8,29.26,West,260,4.0,8.0,96,0.03,,-RA,0.24,VWS V14.01,2013-04-19 08:36:00,
2013-04-19 04:41:00,42.9,41.6,29.26,West,262,2.0,5.0,95,0.04,,-RA,0.25,VWS V14.01,2013-04-19 08:41:00,
2013-04-19 04:46:00,42.8,41.5,29.25,West,262,2.0,2.0,95,0.04,,-RA,0.25,VWS V14.01,2013-04-19 08:46:00,
2013-04-19 04:51:00,42.8,41.5,29.25,WSW,251,2.0,3.0,95,0.04,,-RA,0.25,VWS V14.01,2013-04-19 08:51:00,
2013-04-19 04:56:00,42.8,41.5,29.25,West,267,2.0,3.0,95,0.04,,-RA,0.25,VWS V14.01,2013-04-19 08:56:00,
2013-04-19 05:01:00,42.7,41.4,29.25,West,272,4.0,4.0,95,0.04,,-RA,0.25,VWS V14.01,2013-04-19 09:01:00,
2013-04-19 05:06:00,42.7,41.4,29.25,SW,231,4.0,6.0,95,0.02,,-RA,0.25,VWS V14.01,2013-04-19 09:06:00,
2013-04-19 05:11:00,42.7,41.4,29.25,SW,236,7.0,7.0,95,0.02,,-RA,0.25,VWS V14.01,2013-04-19 09:11:00,
2013-04-19 05:16:00,42.7,41.4,29.25,WNW,290,3.0,5.0,95,0.02,,-RA,0.25,VWS V14.01,2013-04-19 09:16:00,
2013-04-19 05:21:00,42.6,41.3,29.25,SSW,211,2.0,3.0,95,0.02,,-RA,0.25,VWS V14.01,2013-04-19 09:21:00,
2013-04-19 05:26:00,42.7,41.4,29.25,SW,229,3.0,4.0,95,0.02,,-RA,0.25,VWS V14.01,2013-04-19 09:26:00,
2013-04-19 05:31:00,42.6,41.3,29.25,WSW,242,8.0,8.0,95,0.02,,-RA,0.25,VWS V14.01,2013-04-19 09:31:00,
2013-04-19 05:36:00,42.6,41.3,29.25,West,275,3.0,6.0,95,0.01,,-RA,0.25,VWS V14.01,2013-04-19 09:36:00,
2013-04-19 05:41:00,42.7,41.1,29.25,WSW,237,12.0,12.0,94,0.01,,-RA,0.25,VWS V14.01,2013-04-19 09:41:00,
2013-04-19 05:46:00,42.6,40.7,29.26,WSW,256,7.0,7.0,93,0.01,,-RA,0.25,VWS V14.01,2013-04-19 09:46:00,
2013-04-19 05:51:00,42.4,40.2,29.25,South,188,10.0,11.0,92,0.01,,-RA,0.25,VWS V14.01,2013-04-19 09:51:00,
2013-04-19 05:56:00,42.2,40.0,29.25,SW,231,5.0,5.0,92,0.01,,-RA,0.25,VWS V14.01,2013-04-19 09:56:00,
2013-04-19 06:02:00,42.0,39.8,29.25,SW,225,9.0,9.0,92,0.01,,OVC070,0.25,VWS V14.01,2013-04-19 10:02:00,
2013-04-19 06:07:00,41.8,39.7,29.24,SSW,211,7.0,7.0,92,0.00,,OVC070,0.25,VWS V14.01,2013-04-19 10:07:00,
2013-04-19 06:12:00,41.6,39.5,29.24,SW,236,5.0,7.0,92,0.00,,OVC070,0.25,VWS V14.01,2013-04-19 10:12:00,
2013-04-19 06:17:00,41.3,39.2,29.25,West,270,13.0,15.0,92,0.00,,OVC070,0.25,VWS V14.01,2013-04-19 10:17:00,
2013-04-19 06:22:00,41.1,39.2,29.25,SW,231,7.0,8.0,93,0.00,,OVC070,0.25,VWS V14.01,2013-04-19 10:22:00,
2013-04-19 06:27:00,40.8,38.9,29.25,WSW,250,7.0,10.0,93,0.00,,OVC070,0.25,VWS V14.01,2013-04-19 10:27:00,
2013-04-19 06:32:00,40.4,38.3,29.25,SSW,202,15.0,16.0,92,0.01,,OVC070,0.26,VWS V14.01,2013-04-19 10:32:00,
2013-04-19 06:37:00,40.1,37.7,29.25,SW,229,7.0,10.0,91,0.01,,OVC070,0.26,VWS V14.01,2013-04-19 10:37:00,
2013-04-19 06:42:00,39.9,37.5,29.25,WSW,256,9.0,12.0,91,0.01,,OVC070,0.26,VWS V14.01,2013-04-19 10:42:00,
2013-04-19 06:47:00,39.7,37.3,29.25,SW,230,12.0,13.0,91,0.01,,OVC070,0.26,VWS V14.01,2013-04-19 10:47:00,
2013-04-19 06:52:00,39.6,36.9,29.25,WNW,300,4.0,8.0,90,0.01,,OVC070,0.26,VWS V14.01,2013-04-19 10:52:00,
2013-04-19 06:57:00,39.4,36.4,29.25,WSW,252,9.0,12.0,89,0.01,,OVC070,0.26,VWS V14.01,2013-04-19 10:57:00,
2013-04-19 07:02:00,39.3,36.3,29.25,WSW,253,5.0,6.0,89,0.01,,-RA,0.26,VWS V14.01,2013-04-19 11:02:00,
2013-04-19 07:07:00,39.1,36.1,29.25,West,273,6.0,12.0,89,0.01,,-RA,0.26,VWS V14.01,2013-04-19 11:07:00,
2013-04-19 07:12:00,39.0,36.0,29.24,WSW,246,11.0,14.0,89,0.01,,-RA,0.26,VWS V14.01,2013-04-19 11:12:00,
2013-04-19 07:17:00,38.8,36.1,29.24,West,274,0.0,1.0,90,0.01,,-RA,0.26,VWS V14.01,2013-04-19 11:17:00,
2013-04-19 07:22:00,38.6,35.6,29.24,West,262,6.0,8.0,89,0.01,,-RA,0.26,VWS V14.01,2013-04-19 11:22:00,
2013-04-19 07:27:00,38.6,35.6,29.24,WSW,252,8.0,8.0,89,0.01,,-RA,0.26,VWS V14.01,2013-04-19 11:27:00,
2013-04-19 07:32:00,38.6,35.9,29.24,SW,234,2.0,2.0,90,0.01,,-RA,0.26,VWS V14.01,2013-04-19 11:32:00,
2013-04-19 07:37:00,38.4,35.7,29.25,SW,228,5.0,5.0,90,0.00,,-RA,0.26,VWS V14.01,2013-04-19 11:37:00,
2013-04-19 07:42:00,38.4,35.7,29.24,West,263,6.0,7.0,90,0.00,,-RA,0.26,VWS V14.01,2013-04-19 11:42:00,
2013-04-19 07:47:00,38.4,35.7,29.25,WSW,240,1.0,2.0,90,0.00,,-RA,0.26,VWS V14.01,2013-04-19 11:47:00,
2013-04-19 07:52:00,38.4,35.5,29.25,WSW,252,7.0,9.0,89,0.00,,-RA,0.26,VWS V14.01,2013-04-19 11:52:00,
2013-04-19 07:57:00,38.4,35.2,29.24,SW,235,13.0,14.0,88,0.00,,-RA,0.26,VWS V14.01,2013-04-19 11:57:00,
2013-04-19 08:02:00,38.3,34.8,29.25,WSW,248,7.0,8.0,87,0.00,,-RA,0.26,VWS V14.01,2013-04-19 12:02:00,
2013-04-19 08:07:00,38.1,34.0,29.24,West,266,7.0,9.0,85,0.00,,-RA,0.26,VWS V14.01,2013-04-19 12:07:00,
2013-04-19 08:12:00,38.0,33.6,29.24,SSW,207,6.0,9.0,84,0.00,,-RA,0.26,VWS V14.01,2013-04-19 12:12:00,
2013-04-19 08:17:00,37.9,33.5,29.24,SW,236,4.0,4.0,84,0.00,,-RA,0.26,VWS V14.01,2013-04-19 12:17:00,
2013-04-19 08:22:00,37.8,33.4,29.24,West,269,8.0,14.0,84,0.00,,-RA,0.26,VWS V14.01,2013-04-19 12:22:00,
2013-04-19 08:27:00,37.7,33.6,29.24,SSW,204,10.0,16.0,85,0.00,,-RA,0.26,VWS V14.01,2013-04-19 12:27:00,
2013-04-19 08:32:00,37.5,33.4,29.23,WNW,285,4.0,8.0,85,0.00,,-RA,0.26,VWS V14.01,2013-04-19 12:32:00,
2013-04-19 08:37:00,37.4,33.3,29.23,West,265,8.0,11.0,85,0.00,,-RA,0.26,VWS V14.01,2013-04-19 12:37:00,
2013-04-19 08:42:00,37.4,33.3,29.23,WSW,242,9.0,9.0,85,0.00,,-RA,0.26,VWS V14.01,2013-04-19 12:42:00,
2013-04-19 08:47:00,37.4,33.3,29.23,WSW,257,5.0,8.0,85,0.00,,-RA,0.26,VWS V14.01,2013-04-19 12:47:00,
2013-04-19 08:52:00,37.4,33.3,29.23,WSW,238,15.0,15.0,85,0.00,,-RA,0.26,VWS V14.01,2013-04-19 12:52:00,
2013-04-19 08:58:00,37.4,33.0,29.22,WSW,241,2.0,4.0,84,0.00,,-RA,0.26,VWS V14.01,2013-04-19 12:58:00,
2013-04-19 09:03:00,37.4,33.0,29.22,SSW,204,16.0,17.0,84,0.00,,OVC028,0.26,VWS V14.01,2013-04-19 13:03:00,
2013-04-19 09:08:00,37.4,32.7,29.22,SW,223,9.0,10.0,83,0.00,,OVC028,0.26,VWS V14.01,2013-04-19 13:08:00,
2013-04-19 09:13:00,37.2,32.5,29.22,West,264,10.0,10.0,83,0.00,,OVC028,0.26,VWS V14.01,2013-04-19 13:13:00,
2013-04-19 09:18:00,37.0,32.3,29.22,West,276,10.0,10.0,83,0.00,,OVC028,0.26,VWS V14.01,2013-04-19 13:18:00,
2013-04-19 09:23:00,37.0,32.0,29.22,SW,214,11.0,15.0,82,0.00,,OVC028,0.26,VWS V14.01,2013-04-19 13:23:00,
2013-04-19 09:28:00,37.0,32.0,29.22,WSW,241,4.0,9.0,82,0.00,,OVC028,0.26,VWS V14.01,2013-04-19 13:28:00,
2013-04-19 09:33:00,37.1,31.8,29.22,WSW,255,5.0,5.0,81,0.00,,OVC028,0.26,VWS V14.01,2013-04-19 13:33:00,
2013-04-19 09:38:00,37.1,31.8,29.22,SW,223,14.0,14.0,81,0.00,,OVC028,0.26,VWS V14.01,2013-04-19 13:38:00,
2013-04-19 09:43:00,37.2,31.0,29.21,WSW,238,7.0,12.0,78,0.00,,OVC028,0.26,VWS V14.01,2013-04-19 13:43:00,
2013-04-19 09:48:00,37.3,31.7,29.21,West,266,6.0,9.0,80,0.00,,OVC028,0.26,VWS V14.01,2013-04-19 13:48:00,
2013-04-19 09:53:00,37.3,31.1,29.21,SW,217,19.0,19.0,78,0.00,,OVC028,0.26,VWS V14.01,2013-04-19 13:53:00,
2013-04-19 09:58:00,37.4,31.5,29.21,SW,229,7.0,9.0,79,0.00,,OVC028,0.26,VWS V14.01,2013-04-19 13:58:00,
2013-04-19 10:03:00,37.4,31.5,29.21,SW,232,6.0,6.0,79,0.00,,-RA,0.26,VWS V14.01,2013-04-19 14:03:00,
2013-04-19 10:08:00,37.5,31.3,29.21,WSW,247,8.0,13.0,78,0.00,,-RA,0.26,VWS V14.01,2013-04-19 14:08:00,
2013-04-19 10:13:00,37.5,31.0,29.21,SW,234,13.0,13.0,77,0.00,,-RA,0.26,VWS V14.01,2013-04-19 14:13:00,
2013-04-19 10:18:00,37.6,31.1,29.21,SW,230,8.0,8.0,77,0.00,,-RA,0.26,VWS V14.01,2013-04-19 14:18:00,
2013-04-19 10:23:00,37.6,31.1,29.21,WSW,248,14.0,14.0,77,0.00,,-RA,0.26,VWS V14.01,2013-04-19 14:23:00,
2013-04-19 10:28:00,37.6,30.7,29.21,WSW,250,12.0,14.0,76,0.00,,-RA,0.26,VWS V14.01,2013-04-19 14:28:00,
2013-04-19 10:33:00,37.5,30.6,29.21,SW,219,11.0,12.0,76,0.00,,-RA,0.26,VWS V14.01,2013-04-19 14:33:00,
2013-04-19 10:38:00,37.6,30.4,29.21,South,188,5.0,5.0,75,0.00,,-RA,0.26,VWS V14.01,2013-04-19 14:38:00,
2013-04-19 10:43:00,37.6,30.4,29.21,WSW,246,14.0,17.0,75,0.00,,-RA,0.26,VWS V14.01,2013-04-19 14:43:00,
2013-04-19 10:48:00,37.6,30.4,29.21,WSW,238,6.0,9.0,75,0.00,,-RA,0.26,VWS V14.01,2013-04-19 14:48:00,
2013-04-19 10:53:00,37.7,30.5,29.21,WSW,255,4.0,6.0,75,0.00,,-RA,0.26,VWS V14.01,2013-04-19 14:53:00,
2013-04-19 10:58:00,37.7,30.5,29.22,WSW,246,3.0,8.0,75,0.00,,-RA,0.26,VWS V14.01,2013-04-19 14:58:00,
2013-04-19 11:03:00,37.6,30.4,29.22,WSW,241,18.0,18.0,75,0.00,,OVC030,0.26,VWS V14.01,2013-04-19 15:03:00,
2013-04-19 11:08:00,37.7,30.2,29.21,SW,228,18.0,18.0,74,0.00,,OVC030,0.26,VWS V14.01,2013-04-19 15:08:00,
2013-04-19 11:13:00,37.7,30.2,29.21,WSW,240,9.0,12.0,74,0.00,,OVC030,0.26,VWS V14.01,2013-04-19 15:13:00,
2013-04-19 11:18:00,37.7,30.2,29.21,SSW,208,5.0,5.0,74,0.00,,OVC030,0.26,VWS V14.01,2013-04-19 15:18:00,
2013-04-19 11:24:00,37.6,30.1,29.22,WSW,240,13.0,17.0,74,0.00,,OVC030,0.26,VWS V14.01,2013-04-19 15:24:00,
2013-04-19 11:29:00,37.5,30.0,29.21,SW,223,16.0,16.0,74,0.00,,OVC030,0.26,VWS V14.01,2013-04-19 15:29:00,
2013-04-19 11:34:00,37.5,30.3,29.22,West,264,6.0,11.0,75,0.00,,OVC030,0.26,VWS V14.01,2013-04-19 15:34:00,
2013-04-19 11:39:00,37.5,30.3,29.22,WSW,246,12.0,12.0,75,0.00,,OVC030,0.26,VWS V14.01,2013-04-19 15:39:00,
2013-04-19 11:44:00,37.5,30.0,29.22,SW,217,6.0,7.0,74,0.00,,OVC030,0.26,VWS V14.01,2013-04-19 15:44:00,
2013-04-19 11:49:00,37.4,30.2,29.21,SW,233,13.0,13.0,75,0.00,,OVC030,0.26,VWS V14.01,2013-04-19 15:49:00,
2013-04-19 11:54:00,37.4,29.9,29.21,SW,221,6.0,10.0,74,0.00,,OVC030,0.26,VWS V14.01,2013-04-19 15:54:00,
2013-04-19 11:59:00,37.4,29.5,29.22,SSW,206,6.0,10.0,73,0.00,,OVC030,0.26,VWS V14.01,2013-04-19 15:59:00,
2013-04-19 12:04:00,37.4,29.5,29.21,WSW,244,8.0,10.0,73,0.00,,OVC032,0.26,VWS V14.01,2013-04-19 16:04:00,
2013-04-19 12:09:00,37.4,29.5,29.21,WSW,240,9.0,13.0,73,0.00,,OVC032,0.26,VWS V14.01,2013-04-19 16:09:00,
2013-04-19 12:14:00,37.4,29.5,29.21,SW,228,17.0,17.0,73,0.00,,OVC032,0.26,VWS V14.01,2013-04-19 16:14:00,
2013-04-19 12:19:00,37.5,29.6,29.21,SW,234,5.0,6.0,73,0.00,,OVC032,0.26,VWS V14.01,2013-04-19 16:19:00,
2013-04-19 12:24:00,37.5,29.6,29.21,West,266,6.0,10.0,73,0.00,,OVC032,0.26,VWS V14.01,2013-04-19 16:24:00,
2013-04-19 12:29:00,37.5,29.6,29.21,SSW,206,9.0,13.0,73,0.00,,OVC032,0.26,VWS V14.01,2013-04-19 16:29:00,
2013-04-19 12:34:00,37.6,29.7,29.21,WSW,248,15.0,15.0,73,0.00,,OVC032,0.26,VWS V14.01,2013-04-19 16:34:00,
2013-04-19 12:39:00,37.6,29.7,29.20,WSW,244,8.0,14.0,73,0.00,,OVC032,0.26,VWS V14.01,2013-04-19 16:39:00,
2013-04-19 12:44:00,37.7,30.2,29.20,SW,236,4.0,4.0,74,0.00,,OVC032,0.26,VWS V14.01,2013-04-19 16:44:00,
2013-04-19 12:49:00,37.8,30.3,29.20,WSW,244,13.0,13.0,74,0.00,,OVC032,0.26,VWS V14.01,2013-04-19 16:49:00,
2013-04-19 12:54:00,37.8,30.3,29.20,SW,234,10.0,11.0,74,0.00,,OVC032,0.26,VWS V14.01,2013-04-19 16:54:00,
2013-04-19 12:59:00,37.8,29.9,29.20,SW,219,9.0,12.0,73,0.00,,OVC032,0.26,VWS V14.01,2013-04-19 16:59:00,
2013-04-19 13:04:00,37.9,30.0,29.20,West,273,11.0,11.0,73,0.00,,OVC041,0.26,VWS V14.01,2013-04-19 17:04:00,
2013-04-19 13:09:00,38.1,29.9,29.20,SW,234,8.0,12.0,72,0.00,,OVC041,0.26,VWS V14.01,2013-04-19 17:09:00,
2013-04-19 13:14:00,38.2,29.6,29.20,WSW,240,13.0,21.0,71,0.00,,OVC041,0.26,VWS V14.01,2013-04-19 17:14:00,
2013-04-19 13:19:00,38.1,29.9,29.20,WSW,255,7.0,12.0,72,0.00,,OVC041,0.26,VWS V14.01,2013-04-19 17:19:00,
2013-04-19 13:24:00,38.1,29.9,29.20,WSW,250,10.0,12.0,72,0.00,,OVC041,0.26,VWS V14.01,2013-04-19 17:24:00,
2013-04-19 13:29:00,37.9,30.4,29.20,WNW,286,15.0,22.0,74,0.00,,OVC041,0.26,VWS V14.01,2013-04-19 17:29:00,
2013-04-19 13:34:00,37.9,30.4,29.19,WNW,282,6.0,16.0,74,0.00,,OVC041,0.26,VWS V14.01,2013-04-19 17:34:00,
2013-04-19 13:39:00,37.8,30.3,29.19,SW,223,15.0,17.0,74,0.00,,OVC041,0.26,VWS V14.01,2013-04-19 17:39:00,
2013-04-19 13:45:00,37.7,30.5,29.19,SSW,211,9.0,11.0,75,0.00,,OVC041,0.26,VWS V14.01,2013-04-19 17:45:00,
2013-04-19 13:50:00,37.5,31.3,29.20,SSW,205,18.0,24.0,78,0.00,,OVC041,0.26,VWS V14.01,2013-04-19 17:50:00,
2013-04-19 13:55:00,37.8,30.6,29.19,WSW,246,18.0,18.0,75,0.00,,OVC041,0.26,VWS V14.01,2013-04-19 17:55:00,
2013-04-19 14:00:00,37.8,30.9,29.19,SW,233,12.0,13.0,76,0.00,,OVC041,0.26,VWS V14.01,2013-04-19 18:00:00,
2013-04-19 14:05:00,38.0,31.1,29.18,SW,231,20.0,20.0,76,0.00,,OVC034,0.26,VWS V14.01,2013-04-19 18:05:00,
2013-04-19 14:10:00,38.0,31.1,29.19,SW,225,9.0,17.0,76,0.00,,OVC034,0.26,VWS V14.01,2013-04-19 18:10:00,
2013-04-19 14:15:00,38.0,31.1,29.19,SW,227,17.0,19.0,76,0.00,,OVC034,0.26,VWS V14.01,2013-04-19 18:15:00,
2013-04-19 14:20:00,38.0,31.1,29.19,WNW,283,17.0,23.0,76,0.00,,OVC034,0.26,VWS V14.01,2013-04-19 18:20:00,
2013-04-19 14:25:00,37.5,31.3,29.20,WSW,242,8.0,16.0,78,0.00,,OVC034,0.26,VWS V14.01,2013-04-19 18:25:00,
2013-04-19 14:30:00,37.1,31.2,29.19,WSW,242,10.0,12.0,79,0.00,,OVC034,0.26,VWS V14.01,2013-04-19 18:30:00,
2013-04-19 14:35:00,37.1,31.2,29.19,WSW,239,15.0,22.0,79,0.00,,OVC034,0.26,VWS V14.01,2013-04-19 18:35:00,
2013-04-19 14:40:00,36.9,31.0,29.19,SW,231,8.0,13.0,79,0.00,,OVC034,0.26,VWS V14.01,2013-04-19 18:40:00,
2013-04-19 14:45:00,37.1,31.5,29.20,WSW,242,13.0,21.0,80,0.00,,OVC034,0.26,VWS V14.01,2013-04-19 18:45:00,
2013-04-19 14:50:00,37.4,31.2,29.20,WSW,237,16.0,20.0,78,0.00,,OVC034,0.26,VWS V14.01,2013-04-19 18:50:00,
2013-04-19 14:55:00,37.3,31.1,29.20,WSW,252,15.0,16.0,78,0.00,,OVC034,0.26,VWS V14.01,2013-04-19 18:55:00,
2013-04-19 15:00:00,37.1,31.2,29.20,SW,235,24.0,27.0,79,0.00,,OVC034,0.26,VWS V14.01,2013-04-19 19:00:00,
2013-04-19 15:05:00,37.1,31.5,29.21,NW,311,10.0,22.0,80,0.00,,OVC048,0.26,VWS V14.01,2013-04-19 19:05:00,
2013-04-19 15:10:00,37.1,31.5,29.21,NW,305,13.0,19.0,80,0.00,,OVC048,0.26,VWS V14.01,2013-04-19 19:10:00,
2013-04-19 15:17:00,37.1,31.8,29.21,SW,234,14.0,14.0,81,0.00,,OVC048,0.26,VWS V14.01,2013-04-19 19:17:00,
2013-04-19 15:22:00,36.6,31.9,29.21,West,260,15.0,15.0,83,0.00,,OVC048,0.26,VWS V14.01,2013-04-19 19:22:00,
2013-04-19 15:27:00,36.0,31.6,29.21,WNW,285,12.0,20.0,84,0.00,,OVC048,0.26,VWS V14.01,2013-04-19 19:27:00,
2013-04-19 15:33:00,35.6,31.8,29.22,West,280,14.0,15.0,86,0.00,,OVC048,0.26,VWS V14.01,2013-04-19 19:33:00,
2013-04-19 15:38:00,35.1,31.9,29.22,WSW,246,21.0,21.0,88,0.00,,OVC048,0.26,VWS V14.01,2013-04-19 19:38:00,
2013-04-19 15:43:00,35.3,32.4,29.22,SW,225,17.0,24.0,89,0.00,,OVC048,0.26,VWS V14.01,2013-04-19 19:43:00,
2013-04-19 15:48:00,35.4,32.2,29.22,WNW,288,16.0,18.0,88,0.00,,OVC048,0.26,VWS V14.01,2013-04-19 19:48:00,
2013-04-19 15:53:00,35.0,32.1,29.23,WSW,251,15.0,15.0,89,0.00,,OVC048,0.26,VWS V14.01,2013-04-19 19:53:00,
2013-04-19 15:58:00,34.7,31.8,29.24,WSW,246,14.0,20.0,89,0.00,,OVC048,0.26,VWS V14.01,2013-04-19 19:58:00,
2013-04-19 16:03:00,34.8,31.9,29.24,WSW,248,15.0,17.0,89,0.00,,,0.26,VWS V14.01,2013-04-19 20:03:00,
2013-04-19 16:08:00,35.0,32.1,29.24,West,269,9.0,15.0,89,0.00,,,0.26,VWS V14.01,2013-04-19 20:08:00,
2013-04-19 16:13:00,35.1,31.9,29.24,West,279,8.0,11.0,88,0.00,,,0.26,VWS V14.01,2013-04-19 20:13:00,
2013-04-19 16:18:00,35.5,32.3,29.25,West,263,23.0,23.0,88,0.00,,,0.26,VWS V14.01,2013-04-19 20:18:00,
2013-04-19 16:23:00,35.3,31.5,29.25,WSW,254,11.0,11.0,86,0.00,,,0.26,VWS V14.01,2013-04-19 20:23:00,
2013-04-19 16:28:00,35.3,31.5,29.25,SW,226,18.0,18.0,86,0.00,,,0.26,VWS V14.01,2013-04-19 20:28:00,
2013-04-19 16:33:00,34.3,30.8,29.26,WSW,238,10.0,16.0,87,0.00,,,0.26,VWS V14.01,2013-04-19 20:33:00,
2013-04-19 16:38:00,33.7,30.2,29.27,West,260,9.0,17.0,87,0.00,,,0.26,VWS V14.01,2013-04-19 20:38:00,
2013-04-19 16:43:00,34.3,30.3,29.27,South,182,21.0,23.0,85,0.00,,,0.26,VWS V14.01,2013-04-19 20:43:00,
2013-04-19 16:48:00,35.5,30.9,29.27,WSW,255,16.0,18.0,83,0.00,,,0.26,VWS V14.01,2013-04-19 20:48:00,
2013-04-19 16:53:00,35.7,30.1,29.27,SW,223,13.0,16.0,80,0.00,,,0.26,VWS V14.01,2013-04-19 20:53:00,
2013-04-19 16:58:00,35.7,29.2,29.28,WSW,253,12.0,16.0,77,0.00,,,0.26,VWS V14.01,2013-04-19 20:58:00,
2013-04-19 17:03:00,35.6,28.8,29.28,SW,229,7.0,12.0,76,0.00,,,0.26,VWS V14.01,2013-04-19 21:03:00,
2013-04-19 17:08:00,35.5,28.4,29.29,SW,223,5.0,11.0,75,0.00,,,0.26,VWS V14.01,2013-04-19 21:08:00,
2013-04-19 17:13:00,35.3,27.9,29.28,WSW,246,14.0,14.0,74,0.00,,,0.26,VWS V14.01,2013-04-19 21:13:00,
2013-04-19 17:18:00,35.1,27.7,29.29,SW,228,27.0,27.0,74,0.00,,,0.26,VWS V14.01,2013-04-19 21:18:00,
2013-04-19 17:23:00,35.2,27.4,29.30,West,263,6.0,9.0,73,0.00,,,0.26,VWS V14.01,2013-04-19 21:23:00,
2013-04-19 17:28:00,35.5,27.4,29.30,West,275,14.0,15.0,72,0.00,,,0.26,VWS V14.01,2013-04-19 21:28:00,
2013-04-19 17:33:00,35.5,27.7,29.31,WNW,298,10.0,12.0,73,0.00,,,0.26,VWS V14.01,2013-04-19 21:33:00,
2013-04-19 17:38:00,35.6,27.8,29.31,WSW,257,23.0,27.0,73,0.00,,,0.26,VWS V14.01,2013-04-19 21:38:00,
2013-04-19 17:43:00,35.5,27.0,29.31,WNW,283,10.0,23.0,71,0.00,,,0.26,VWS V14.01,2013-04-19 21:43:00,
2013-04-19 17:48:00,35.5,26.7,29.32,WSW,238,27.0,27.0,70,0.00,,,0.26,VWS V14.01,2013-04-19 21:48:00,
2013-04-19 17:53:00,35.2,26.1,29.32,WNW,287,11.0,17.0,69,0.00,,,0.26,VWS V14.01,2013-04-19 21:53:00,
2013-04-19 17:58:00,35.0,26.2,29.33,WNW,296,18.0,18.0,70,0.00,,,0.26,VWS V14.01,2013-04-19 21:58:00,
2013-04-19 18:03:00,34.8,26.4,29.33,SW,217,10.0,18.0,71,0.00,,,0.26,VWS V14.01,2013-04-19 22:03:00,
2013-04-19 18:08:00,35.2,26.4,29.34,WSW,238,17.0,42.0,70,0.00,,,0.26,VWS V14.01,2013-04-19 22:08:00,
2013-04-19 18:13:00,35.1,26.3,29.33,West,267,14.0,15.0,70,0.00,,,0.26,VWS V14.01,2013-04-19 22:13:00,
2013-04-19 18:18:00,35.0,26.2,29.34,West,269,16.0,26.0,70,0.00,,,0.26,VWS V14.01,2013-04-19 22:18:00,
2013-04-19 18:23:00,34.8,26.4,29.35,West,279,9.0,10.0,71,0.00,,,0.26,VWS V14.01,2013-04-19 22:23:00,
2013-04-19 18:29:00,34.5,26.1,29.35,WNW,302,13.0,13.0,71,0.00,,,0.26,VWS V14.01,2013-04-19 22:29:00,
2013-04-19 18:34:00,34.3,25.9,29.35,West,278,17.0,17.0,71,0.00,,,0.26,VWS V14.01,2013-04-19 22:34:00,
2013-04-19 18:39:00,34.0,25.9,29.36,WNW,291,19.0,19.0,72,0.00,,,0.26,VWS V14.01,2013-04-19 22:39:00,
2013-04-19 18:44:00,33.9,25.8,29.37,West,275,20.0,20.0,72,0.00,,,0.26,VWS V14.01,2013-04-19 22:44:00,
2013-04-19 18:49:00,33.8,25.4,29.37,WNW,299,12.0,14.0,71,0.00,,,0.26,VWS V14.01,2013-04-19 22:49:00,
2013-04-19 18:54:00,33.5,24.8,29.37,West,272,15.0,18.0,70,0.00,,,0.26,VWS V14.01,2013-04-19 22:54:00,
2013-04-19 18:59:00,33.2,24.8,29.37,NW,312,4.0,11.0,71,0.00,,,0.26,VWS V14.01,2013-04-19 22:59:00,
2013-04-19 19:04:00,33.0,25.0,29.39,West,266,9.0,15.0,72,0.00,,OVC049,0.26,VWS V14.01,2013-04-19 23:04:00,
2013-04-19 19:09:00,32.9,25.5,29.39,WNW,288,16.0,19.0,74,0.00,,OVC049,0.26,VWS V14.01,2013-04-19 23:09:00,
2013-04-19 19:14:00,32.5,24.2,29.40,WSW,252,19.0,19.0,71,0.00,,OVC049,0.26,VWS V14.01,2013-04-19 23:14:00,
2013-04-19 19:19:00,32.1,23.8,29.40,West,261,7.0,14.0,71,0.00,,OVC049,0.26,VWS V14.01,2013-04-19 23:19:00,
2013-04-19 19:24:00,32.0,23.3,29.40,WNW,296,14.0,33.0,70,0.00,,OVC049,0.26,VWS V14.01,2013-04-19 23:24:00,
2013-04-19 19:29:00,31.9,23.6,29.41,WNW,301,13.0,28.0,71,0.00,,OVC049,0.26,VWS V14.01,2013-04-19 23:29:00,
2013-04-19 19:34:00,31.9,23.6,29.41,NNW,339,10.0,24.0,71,0.00,,OVC049,0.26,VWS V14.01,2013-04-19 23:34:00,
2013-04-19 19:39:00,31.7,24.0,29.42,West,269,14.0,14.0,73,0.00,,OVC049,0.26,VWS V14.01,2013-04-19 23:39:00,
2013-04-19 19:44:00,31.4,24.4,29.42,NW,323,17.0,30.0,75,0.00,,OVC049,0.26,VWS V14.01,2013-04-19 23:44:00,
2013-04-19 19:49:00,30.8,24.1,29.44,West,263,27.0,29.0,76,0.00,,OVC049,0.26,VWS V14.01,2013-04-19 23:49:00,
2013-04-19 19:54:00,30.3,24.0,29.44,NNW,341,20.0,25.0,77,0.00,,OVC049,0.26,VWS V14.01,2013-04-19 23:54:00,
2013-04-19 19:59:00,29.7,23.7,29.45,WNW,289,13.0,16.0,78,0.00,,OVC049,0.26,VWS V14.01,2013-04-19 23:59:00,
2013-04-19 20:04:00,29.4,24.0,29.45,WNW,296,9.0,10.0,80,0.00,,OVC090,0.26,VWS V14.01,2013-04-20 00:04:00,
2013-04-19 20:09:00,29.2,23.8,29.46,NNW,338,9.0,13.0,80,0.00,,OVC090,0.26,VWS V14.01,2013-04-20 00:09:00,
2013-04-19 20:15:00,29.2,23.8,29.46,WNW,302,9.0,13.0,80,0.00,,OVC090,0.26,VWS V14.01,2013-04-20 00:15:00,
2013-04-19 20:20:00,28.9,23.5,29.47,WNW,301,7.0,15.0,80,0.00,,OVC090,0.26,VWS V14.01,2013-04-20 00:20:00,
2013-04-19 20:25:00,28.5,23.7,29.47,West,261,10.0,15.0,82,0.00,,OVC090,0.26,VWS V14.01,2013-04-20 00:25:00,
2013-04-19 20:30:00,28.1,24.2,29.48,NW,304,9.0,10.0,85,0.00,,OVC090,0.26,VWS V14.01,2013-04-20 00:30:00,
2013-04-19 20:35:00,27.9,24.3,29.48,West,278,12.0,14.0,86,0.00,,OVC090,0.26,VWS V14.01,2013-04-20 00:35:00,
2013-04-19 20:40:00,28.0,24.1,29.50,West,267,10.0,20.0,85,0.00,,OVC090,0.26,VWS V14.01,2013-04-20 00:40:00,
2013-04-19 20:45:00,27.8,24.2,29.49,NW,312,12.0,15.0,86,0.00,,OVC090,0.26,VWS V14.01,2013-04-20 00:45:00,
2013-04-19 20:50:00,27.5,24.1,29.50,NW,304,8.0,17.0,87,0.00,,OVC090,0.26,VWS V14.01,2013-04-20 00:50:00,
2013-04-19 20:55:00,27.3,23.7,29.50,West,280,10.0,14.0,86,0.00,,OVC090,0.26,VWS V14.01,2013-04-20 00:55:00,
2013-04-19 21:00:00,27.2,23.9,29.51,NNW,346,5.0,10.0,87,0.00,,OVC090,0.26,VWS V14.01,2013-04-20 01:00:00,
2013-04-19 21:05:00,27.1,24.0,29.52,West,263,18.0,18.0,88,0.00,,,0.26,VWS V14.01,2013-04-20 01:05:00,
2013-04-19 21:10:00,26.8,24.0,29.52,WNW,295,27.0,28.0,89,0.00,,,0.26,VWS V14.01,2013-04-20 01:10:00,
2013-04-19 21:15:00,26.7,24.2,29.53,NNW,342,8.0,13.0,90,0.00,,,0.26,VWS V14.01,2013-04-20 01:15:00,
2013-04-19 21:20:00,26.7,23.9,29.53,WNW,288,7.0,15.0,89,0.00,,,0.26,VWS V14.01,2013-04-20 01:20:00,
2013-04-19 21:25:00,26.7,23.6,29.54,WNW,286,11.0,15.0,88,0.00,,,0.26,VWS V14.01,2013-04-20 01:25:00,
2013-04-19 21:30:00,26.8,24.0,29.54,WNW,290,3.0,7.0,89,0.00,,,0.26,VWS V14.01,2013-04-20 01:30:00,
2013-04-19 21:35:00,26.9,23.6,29.54,NNW,333,8.0,8.0,87,0.00,,,0.26,VWS V14.01,2013-04-20 01:35:00,
2013-04-19 21:40:00,27.0,23.4,29.55,NW,311,11.0,14.0,86,0.00,,,0.26,VWS V14.01,2013-04-20 01:40:00,
2013-04-19 21:45:00,27.1,23.2,29.55,West,277,8.0,14.0,85,0.00,,,0.26,VWS V14.01,2013-04-20 01:45:00,
2013-04-19 21:50:00,27.0,22.8,29.56,WSW,239,10.0,14.0,84,0.00,,,0.26,VWS V14.01,2013-04-20 01:50:00,
2013-04-19 21:55:00,27.0,22.8,29.56,WNW,294,13.0,13.0,84,0.00,,,0.26,VWS V14.01,2013-04-20 01:55:00,
2013-04-19 22:00:00,27.1,21.8,29.56,WNW,283,15.0,15.0,80,0.00,,,0.26,VWS V14.01,2013-04-20 02:00:00,
2013-04-19 22:05:00,27.2,21.6,29.57,NNW,327,9.0,13.0,79,0.00,,,0.26,VWS V14.01,2013-04-20 02:05:00,
2013-04-19 22:10:00,27.3,21.4,29.57,NW,315,12.0,21.0,78,0.00,,,0.26,VWS V14.01,2013-04-20 02:10:00,
2013-04-19 22:15:00,27.4,20.5,29.57,NNW,333,11.0,11.0,75,0.00,,,0.26,VWS V14.01,2013-04-20 02:15:00,
2013-04-19 22:20:00,27.4,20.5,29.58,WNW,300,11.0,21.0,75,0.00,,,0.26,VWS V14.01,2013-04-20 02:20:00,
2013-04-19 22:25:00,27.4,20.8,29.58,WNW,302,9.0,14.0,76,0.00,,,0.26,VWS V14.01,2013-04-20 02:25:00,
2013-04-19 22:30:00,27.5,20.9,29.58,NW,313,15.0,21.0,76,0.00,,,0.26,VWS V14.01,2013-04-20 02:30:00,
2013-04-19 22:35:00,27.3,20.8,29.58,NW,308,10.0,15.0,76,0.00,,,0.26,VWS V14.01,2013-04-20 02:35:00,
2013-04-19 22:41:00,27.1,21.2,29.58,WNW,298,5.0,13.0,78,0.00,,,0.26,VWS V14.01,2013-04-20 02:41:00,
2013-04-19 22:46:00,27.0,21.7,29.59,NW,323,8.0,14.0,80,0.00,,,0.26,VWS V14.01,2013-04-20 02:46:00,
2013-04-19 22:51:00,26.9,21.6,29.59,NW,311,2.0,5.0,80,0.00,,,0.26,VWS V14.01,2013-04-20 02:51:00,
2013-04-19 22:56:00,26.8,21.2,29.59,NNW,340,14.0,16.0,79,0.00,,,0.26,VWS V14.01,2013-04-20 02:56:00,
2013-04-19 23:01:00,26.7,21.7,29.60,West,264,10.0,13.0,81,0.00,,,0.26,VWS V14.01,2013-04-20 03:01:00,
2013-04-19 23:06:00,26.7,21.7,29.60,NW,309,9.0,12.0,81,0.00,,OVC085,0.26,VWS V14.01,2013-04-20 03:06:00,
2013-04-19 23:11:00,26.7,21.1,29.60,NW,306,12.0,15.0,79,0.00,,OVC085,0.26,VWS V14.01,2013-04-20 03:11:00,
2013-04-19 23:16:00,26.7,21.1,29.60,WSW,256,8.0,10.0,79,0.00,,OVC085,0.26,VWS V14.01,2013-04-20 03:16:00,
2013-04-19 23:21:00,26.6,21.0,29.61,NW,308,18.0,27.0,79,0.00,,OVC085,0.26,VWS V14.01,2013-04-20 03:21:00,
2013-04-19 23:26:00,26.6,21.0,29.61,NW,319,10.0,13.0,79,0.00,,OVC085,0.26,VWS V14.01,2013-04-20 03:26:00,
2013-04-19 23:31:00,26.5,20.9,29.61,NW,315,10.0,15.0,79,0.00,,OVC085,0.26,VWS V14.01,2013-04-20 03:31:00,
2013-04-19 23:36:00,26.3,21.0,29.62,NNW,339,9.0,17.0,80,0.00,,OVC085,0.26,VWS V14.01,2013-04-20 03:36:00,
2013-04-19 23:41:00,26.3,20.4,29.62,WNW,295,7.0,8.0,78,0.00,,OVC085,0.26,VWS V14.01,2013-04-20 03:41:00,
2013-04-19 23:46:00,26.3,20.4,29.62,NW,312,12.0,16.0,78,0.00,,OVC085,0.26,VWS V14.01,2013-04-20 03:46:00,
2013-04-19 23:51:00,26.3,20.1,29.62,WNW,300,7.0,17.0,77,0.00,,OVC085,0.26,VWS V14.01,2013-04-20 03:51:00,
2013-04-19 23:56:00,26.2,19.7,29.63,North,352,13.0,13.0,76,0.00,,OVC085,0.26,VWS V14.01,2013-04-20 03:56:00,